Regional Weather Roundup
Issued by NWS Portland, ME

Home | Current Version | Previous Version | Text Only | Print | Product List | Glossary On
Versions: 1 2 3 4 5 6 7 8 9 10 11 12 13 14 15 16 17 18 19 20 21 22 23 24 25 26 27 28 29 30 31 32 33 34 35 36 37 38 39 40 41 42 43 44 45 46 47 48 49 50
000
ASUS41 KGYX 040910
RWRGYX
WEATHER ROUNDUP FOR MAINE AND NEW HAMPSHIRE
NATIONAL WEATHER SERVICE GRAY ME
500 AM EDT WED MAY 04 2016

MEZ002-005-006-010-012-015-018-020-021-024-026-027-029-041000-
MAINE

CITY           SKY/WX    TMP DP  RH WIND       PRES   REMARKS
PORTLAND       MOCLDY    43  41  93 CALM      29.88R
SANFORD        CLOUDY    39  36  87 CALM      29.88R
BAR HARBOR     CLOUDY    44  42  93 NE5       29.89S
WISCASSET      CLOUDY    44  43  96 CALM      29.89S
ROCKLAND       CLOUDY    45  42  89 NE5       29.88S
FRYEBURG       CLOUDY    44  43  96 CALM      29.87R
LEWISTONAUBURN CLOUDY    41  39  93 CALM      29.88R
AUGUSTA        CLOUDY    45  42  89 NE6       29.87F
WATERVILLE     CLOUDY    45  41  86 NE7       29.86S
BANGOR         CLOUDY    47  41  80 N6        29.90R
GREENVILLE       N/A     39  38  96 CALM      29.84F
MILLINOCKET    CLOUDY    42  39  89 CALM      29.91S
HOULTON        CLOUDY    40  36  86 NE3       29.90S
PRESQUE ISLE   CLOUDY    40  37  89 CALM      29.92S
FRENCHVILLE    CLOUDY    38  34  85 CALM      29.90S
CARIBOU        CLOUDY    40  36  86 NE3       29.90S
$$

NHZ002-005-008-009-011-012-014-041000-
NEW HAMPSHIRE

CITY           SKY/WX    TMP DP  RH WIND       PRES   REMARKS
PORTSMOUTH     CLOUDY    40  39  96 N1        29.86S
ROCHESTER      PTCLDY    40  38  93 CALM      29.85F FOG
NASHUA         CLOUDY    45  42  89 CALM      29.86S
MANCHESTER     CLOUDY    45  40  82 E5        29.84F
CONCORD        CLOUDY    44  40  85 E5        29.85F
LACONIA        CLOUDY    43  37  81 SW3       29.86S
PLYMOUTH       CLOUDY    43  42  97 CALM      29.85S
BERLIN         CLOUDY    41  38  89 CALM      29.84R
WHITEFIELD     PTCLDY    37  34  89 CALM      29.83S
JAFFREY        CLOUDY    44  41  89 CALM      29.84R
KEENE          CLOUDY    46  45  93 CALM      29.85S
LEBANON        CLOUDY    43  41  93 NE3       29.82F
MT WASHINGTON  MOCLDY    32  12  43 W9          N/A
$$

VTZ005-007-008-041000-
VERMONT

CITY           SKY/WX    TMP DP  RH WIND       PRES   REMARKS
ST JOHNSBURY     N/A     39  36  89 MISG      29.83S
MONTPELIER     CLOUDY    39  37  92 CALM      29.85S
BURLINGTON     CLOUDY    43  39  86 CALM      29.80F
$$

MAZ007-012-024-CTZ003-RIZ002-NYZ038-NYZ072-041000-
SOUTHERN NEW ENGLAND AND NY

CITY           SKY/WX    TMP DP  RH WIND       PRES   REMARKS
BOSTON         CLOUDY    45  42  89 NE7       29.87R
WORCESTER      CLOUDY    42  40  92 NE5       29.83R
NANTUCKET      CLOUDY    47  43  86 NE8       29.84R
PROVIDENCE     CLOUDY    46  41  82 NE8       29.85R
HARTFORD       CLOUDY    48  44  86 N3        29.82S
ALBANY         CLOUDY    49  47  93 SE5       29.80S
NEW YORK CITY  LGT RAIN  51  48  89 E7        29.80S
$$

ANZ081-ANZ082-ANZ150-NHZ014-MEZ023>029-041000-
COASTAL MARINE OBSERVATIONS

STATION/POSITION TIME  TEMP    WIND        PRES    WAVE
                       AIR SEA DIR/SP/G            HT/PER
                 (UTC) (F)     (DEG/KT/KT) (MB)    (FT/S)
MOUNT DESERT ROC 0900   44      50/  8/  9 1012.1R
MATINICUS ROCK   0800   44      20/  7/  7 1011.4R
ISLE OF SHOALS   0800   45      40/  4/  5 1011.3R
CASHES LEDGE BUO 0850   45 45   20/  6/  8 1011.1S   3/ 8
GEORGES BANK BUO 0750   45 45              1008.6    6/ 8
$$

.............KEY..............
   WCI - WIND CHILL
   TC  - TEMPERATURE IN CELSIUS
   VSB - VISIBILITY IN MILES
   HX  - HEAT INDEX
   FAIR- INDICATES FEW OR NO CLOUDS BELOW 12,000 FT, WITH NO
         SIGNIFICANT WEATHER AND/OR OBSTRUCTIONS TO VISIBILITY.






USA.gov is the U.S. government's official web portal to all federal, state and local government web resources and services.